Point Lay, AK

1:40 AM AKDT on July 25, 2017 (GMT -0800)
Point Lay

Weather History for PPIZ - November, 2013

Change the Weather History Date:

Thursday, November 14, 2013

  Actual Average Record
Temperature  
Mean Temperature 22 °F -  
Max Temperature 25 °F 12 °F 33 °F (2014)
Min Temperature 17 °F 3 °F -26 °F (2015)
Degree Days  
Heating Degree Days 44    
Moisture  
Dew Point 16 °F    
Average Humidity 80    
Maximum Humidity 93    
Minimum Humidity 68    
Precipitation  
Precipitation 0.00 in - - ()
Sea Level Pressure  
Sea Level Pressure 29.68 in    
Wind  
Wind Speed 32 mph (West)    
Max Wind Speed 41 mph    
Max Gust Speed 47 mph    
Visibility 4 miles    
Events Fog , Snow    
Averages and records for this station are not official NWS values.
T = Trace of Precipitation, MM = Missing Value Source: NWS Daily Summary

Daily Weather History Graph

Daily Weather History Graph

Search for Another Location

Airport or City:

Trip Planner

Search our weather history database for the weather conditions in past years. The results will help you decide how hot, cold, wet, or windy it might be!

Date:

Astronomy

Nov. 14, 2013 Rise Set
Actual Time 11:32 AM AKST 3:39 PM AKST
Civil Twilight 9:59 AM AKST 5:12 PM AKST
Nautical Twilight 8:38 AM AKST 6:33 PM AKST
Astronomical Twilight 7:27 AM AKST 7:44 PM AKST
Moon 3:43 PM AKST (11/14) 6:53 AM AKST (11/14)
Length of Visible Light 7h 13m
Length of Day
4h 06m
Waxing Gibbous, 92% of the Moon is Illuminated
Nov 14
Waxing Gibbous
Nov 17
Full
Nov 25
Last Quarter
Dec 2
New
Dec 9
First Quarter

Hourly Weather History & Observations

Time (AKST) Temp. Windchill Dew Point Humidity Pressure Visibility Wind Dir Wind Speed Gust Speed Precip Events Conditions
12:34 AM 24.8 °F 7.9 °F 15.8 °F 69% 29.33 in 5.0 mi West 29.9 mph 39.1 mph N/A   Haze
12:56 AM 24.1 °F 6.4 °F 16.2 °F 72% 29.36 in 5.0 mi West 32.2 mph 38.0 mph N/A   Haze
1:25 AM 24.8 °F 6.0 °F 17.6 °F 74% 29.35 in 2.5 mi West 39.1 mph 43.7 mph 0.00 in Snow Light Snow
1:38 AM 23.0 °F 4.4 °F 17.6 °F 80% 29.37 in 1.5 mi West 34.5 mph 47.2 mph 0.00 in Snow Light Snow
1:41 AM 23.0 °F 3.9 °F 17.6 °F 80% 29.37 in 1.2 mi West 36.8 mph 47.2 mph 0.00 in Snow Light Snow
1:56 AM 22.1 °F 2.4 °F 16.2 °F 78% 29.39 in 1.5 mi West 38.0 mph 44.9 mph 0.00 in Snow Light Snow
2:06 AM 21.2 °F 1.9 °F 15.8 °F 80% 29.38 in 1.5 mi West 34.5 mph 44.9 mph 0.00 in Snow Light Snow
2:18 AM 21.2 °F 1.9 °F 15.8 °F 80% 29.38 in - West 34.5 mph 41.4 mph 0.00 in Snow Light Snow
2:41 AM 21.2 °F 1.2 °F 15.8 °F 80% 29.40 in 1.8 mi WSW 38.0 mph 41.4 mph 0.00 in Snow Light Snow
2:56 AM 21.2 °F 1.7 °F 17.6 °F 86% 29.40 in 1.2 mi West 35.7 mph 41.4 mph N/A Snow Light Snow
3:11 AM 21.2 °F 2.2 °F 15.8 °F 80% 29.41 in 1.5 mi WSW 33.4 mph 42.6 mph 0.00 in Snow Light Snow
3:23 AM 21.2 °F 0.9 °F 14.0 °F 74% 29.41 in 2.0 mi West 39.1 mph 44.9 mph 0.00 in Snow Light Snow
3:30 AM 21.2 °F 1.4 °F 15.8 °F 80% 29.42 in 1.8 mi WSW 36.8 mph 42.6 mph 0.00 in Snow Light Snow
3:33 AM 21.2 °F 1.7 °F 15.8 °F 80% 29.42 in 1.0 mi WSW 35.7 mph 41.4 mph 0.00 in Snow Light Snow
3:36 AM 21.2 °F 0.9 °F 17.6 °F 86% 29.42 in 0.5 mi WSW 39.1 mph 43.7 mph 0.00 in Fog , Snow Light Snow
3:48 AM 21.2 °F 1.7 °F 17.6 °F 86% 29.43 in 0.8 mi WSW 35.7 mph 47.2 mph 0.00 in Snow Light Snow
3:56 AM 21.0 °F 0.5 °F 16.2 °F 81% 29.43 in 0.5 mi West 40.3 mph 47.2 mph 0.00 in Snow Snow
4:03 AM 21.2 °F 1.7 °F 17.6 °F 86% 29.43 in 1.0 mi WSW 35.7 mph 44.9 mph 0.00 in Snow Light Snow
4:12 AM 21.2 °F 0.9 °F 17.6 °F 86% 29.43 in 0.8 mi West 39.1 mph 44.9 mph 0.00 in Snow Light Snow
4:19 AM 21.2 °F 1.7 °F 17.6 °F 86% 29.43 in - WSW 35.7 mph 43.7 mph 0.00 in Snow Light Snow
4:42 AM 21.2 °F 2.7 °F 17.6 °F 86% 29.44 in - WSW 31.1 mph 40.3 mph 0.00 in Snow Light Snow
4:56 AM 21.0 °F 1.7 °F 19.0 °F 92% 29.45 in 0.2 mi West 34.5 mph 40.3 mph 0.00 in Fog , Snow Light Snow
5:02 AM 21.2 °F 1.2 °F 17.6 °F 86% 29.43 in - WSW 38.0 mph 44.9 mph 0.00 in Snow Light Snow
5:07 AM 21.2 °F 0.9 °F 19.4 °F 93% 29.43 in 0.5 mi WSW 39.1 mph 44.9 mph 0.00 in Fog , Snow Light Snow
5:16 AM 21.2 °F 1.7 °F 17.6 °F 86% 29.44 in - West 35.7 mph 43.7 mph 0.00 in Snow Light Snow
5:29 AM 21.2 °F 0.5 °F 17.6 °F 86% 29.44 in - West 41.4 mph 47.2 mph 0.00 in Snow Light Snow
5:56 AM 21.2 °F 1.9 °F 17.6 °F 86% 29.46 in - West 34.5 mph 40.3 mph N/A   Mostly Cloudy
6:16 AM 21.2 °F 2.4 °F 17.6 °F 86% 29.48 in - West 32.2 mph - 0.00 in Snow Light Snow
6:56 AM 22.1 °F 3.9 °F 16.2 °F 78% 29.52 in - West 31.1 mph 38.0 mph 0.00 in   Mostly Cloudy
7:11 AM 23.0 °F 4.9 °F 15.8 °F 74% 29.52 in - West 32.2 mph 35.7 mph N/A   Mostly Cloudy
7:26 AM 24.8 °F 7.1 °F 17.6 °F 74% 29.53 in - West 33.4 mph 38.0 mph N/A   Mostly Cloudy
7:42 AM 24.8 °F 7.1 °F 19.4 °F 80% 29.54 in - West 33.4 mph 40.3 mph 0.00 in Snow Light Snow
7:56 AM 25.2 °F 6.9 °F 21.0 °F 84% 29.56 in - WNW 36.8 mph 40.3 mph 0.00 in Snow Light Snow
8:22 AM 24.8 °F 6.6 °F 17.6 °F 74% 29.58 in - WNW 35.7 mph 41.4 mph 0.00 in   Mostly Cloudy
8:56 AM 24.8 °F 6.8 °F 17.6 °F 74% 29.61 in - WNW 34.5 mph 38.0 mph N/A   Mostly Cloudy
9:08 AM 24.8 °F 6.8 °F 17.6 °F 74% 29.62 in 2.5 mi WNW 34.5 mph - 0.00 in Snow Light Snow
9:16 AM 23.0 °F 3.7 °F 17.6 °F 80% 29.63 in - WNW 38.0 mph - 0.00 in Snow Light Snow
9:56 AM 22.1 °F 3.1 °F 18.1 °F 85% 29.68 in - WNW 34.5 mph - 0.00 in   Mostly Cloudy
10:41 AM 21.2 °F 3.9 °F 17.6 °F 86% 29.73 in - WNW 26.5 mph - 0.00 in Snow Light Snow
10:56 AM 22.1 °F 3.4 °F 18.1 °F 85% 29.75 in - WNW 33.4 mph 36.8 mph 0.00 in Snow Light Snow
11:08 AM 21.2 °F 1.7 °F 17.6 °F 86% 29.75 in 1.5 mi WNW 35.7 mph 39.1 mph 0.00 in   Haze
11:18 AM 21.2 °F 2.2 °F 14.0 °F 74% 29.76 in 3.0 mi WNW 33.4 mph - 0.00 in   Haze
11:56 AM 21.2 °F 3.0 °F 15.8 °F 80% 29.80 in 6.0 mi WNW 29.9 mph 36.8 mph N/A   Haze
12:56 PM 22.1 °F 5.1 °F 14.0 °F 71% 29.86 in 10.0 mi NW 26.5 mph - 0.00 in   Mostly Cloudy
1:56 PM 22.1 °F 6.4 °F 16.2 °F 78% 29.91 in 2.0 mi WNW 21.9 mph - 0.00 in Snow Light Snow
2:10 PM 21.2 °F 6.4 °F 15.8 °F 80% 29.90 in 10.0 mi NW 18.4 mph - 0.00 in Snow Light Snow
2:26 PM 21.2 °F 4.9 °F 15.8 °F 80% 29.91 in 2.5 mi WNW 23.0 mph - 0.00 in Snow Light Snow
2:30 PM 21.2 °F 6.0 °F 15.8 °F 80% 29.91 in 1.2 mi WNW 19.6 mph - 0.00 in Snow Light Snow
2:36 PM 21.2 °F 7.3 °F 15.8 °F 80% 29.91 in 2.0 mi WNW 16.1 mph - 0.00 in   Haze
2:43 PM 21.2 °F 7.3 °F 15.8 °F 80% 29.92 in 10.0 mi WNW 16.1 mph - 0.00 in   Scattered Clouds
2:56 PM 21.2 °F 6.0 °F 15.8 °F 80% 29.93 in 1.0 mi West 19.6 mph - N/A Snow Light Snow
2:59 PM 19.4 °F 5.0 °F 15.8 °F 86% 29.93 in 0.8 mi WNW 16.1 mph - 0.00 in Snow Light Snow
3:06 PM 19.4 °F 1.1 °F 17.6 °F 93% 29.93 in 0.5 mi West 27.6 mph - 0.00 in Fog , Snow Light Snow
3:09 PM 19.4 °F 1.1 °F 17.6 °F 93% 29.93 in 0.2 mi West 27.6 mph - 0.00 in Fog , Snow Light Snow
3:22 PM 19.4 °F 4.5 °F 17.6 °F 93% 29.94 in 1.0 mi WNW 17.3 mph - 0.00 in Snow Light Snow
3:24 PM 19.4 °F 4.5 °F 15.8 °F 86% 29.94 in 2.0 mi WNW 17.3 mph - 0.00 in Snow Light Snow
3:26 PM 19.4 °F 3.6 °F 15.8 °F 86% 29.94 in 4.0 mi WNW 19.6 mph - 0.00 in Snow Light Snow
3:56 PM 21.0 °F 5.0 °F 14.0 °F 74% 29.96 in 10.0 mi NW 21.9 mph - 0.00 in   Mostly Cloudy
4:17 PM 21.2 °F 4.9 °F 14.0 °F 74% 29.96 in 2.5 mi WNW 23.0 mph 29.9 mph 0.00 in Snow Light Snow
4:31 PM 21.2 °F 4.5 °F 12.2 °F 68% 29.96 in 8.0 mi WNW 24.2 mph - 0.00 in   Scattered Clouds
4:56 PM 20.1 °F 2.4 °F 12.0 °F 71% 29.98 in 6.0 mi WNW 26.5 mph - 0.00 in   Haze
5:56 PM 19.4 °F 1.4 °F 10.4 °F 68% 30.00 in 10.0 mi WNW 26.5 mph - N/A   Overcast
6:56 PM 20.1 °F 5.0 °F 12.0 °F 71% 30.03 in 10.0 mi West 18.4 mph - N/A   Overcast
7:15 PM 21.2 °F 4.5 °F 12.2 °F 68% 30.02 in 10.0 mi West 24.2 mph - 0.00 in   Mostly Cloudy
7:28 PM 19.4 °F 2.8 °F 15.8 °F 86% 30.02 in 1.8 mi WNW 21.9 mph - 0.00 in Snow Light Snow
7:33 PM 19.4 °F 3.6 °F 15.8 °F 86% 30.02 in 3.0 mi WNW 19.6 mph - 0.00 in Snow Light Snow
7:56 PM 20.1 °F 3.4 °F 13.1 °F 74% 30.03 in 10.0 mi West 23.0 mph - 0.00 in   Mostly Cloudy
8:56 PM 19.4 °F 5.0 °F 10.4 °F 68% 30.04 in 10.0 mi West 16.1 mph - N/A Snow Light Snow
9:47 PM 19.4 °F 4.1 °F 12.2 °F 74% 30.04 in 4.0 mi West 18.4 mph - 0.00 in Snow Light Snow
9:56 PM 19.0 °F 4.0 °F 11.1 °F 71% 30.06 in 5.0 mi WSW 17.3 mph - 0.00 in Snow Light Snow
10:56 PM 18.1 °F 2.4 °F 11.1 °F 74% 30.06 in 5.0 mi WSW 18.4 mph - 0.00 in Snow Light Snow
11:56 PM 17.6 °F 2.2 °F 10.4 °F 73% 30.06 in 8.0 mi WSW 17.3 mph - N/A Snow Light Snow